Terminal Aerodrome Forecast
Issued by NWS Anchorage, AK

Home | Current Version | Previous Version | Text Only | Print | Product List | Glossary On
Versions: 1 2 3 4 5 6 7 8 9 10 11 12 13 14 15 16 17 18 19 20 21 22 23 24 25 26 27 28 29 30 31 32 33 34 35 36
000
FTAK31 PANC 301740
TAFANC
TAF
PANC 301740Z 3018/3124 36012G22KT P6SM FEW050 SCT100 BKN200
     FM310000 36008G15KT P6SM SCT100 BKN200
     FM310600 35006KT P6SM BKN100
     FM311800 35008G18KT P6SM BKN100=

USA.gov is the U.S. government's official web portal to all federal, state and local government web resources and services.